Date String (YYYY-MM-DD hh:mm:ss) UTC,Instrument flags,Ambient pressure (hPa),Sample flow (lpm),Bypass flow (lpm),Sample temperature (°C),Ambient temperature (°C),ASC tube jacket temperature (°C),LED temperature (°C),Box temperature (°C),Sample RH (%),Span deviation,Mass concentration (μg/m³),Mass concentration (μg/m³),Mass concentration (μg/m³)
DateTimeUTC,F1_M11,P_M11,Q1_M11,Q2_M11,T1_M11,T2_M11,T3_M11,T4_M11,T5_M11,U1_M11,ZSPAN_M11,X0_M11,X2_M11,X1_M11
2023-04-12 00:00:00,,0828.1,5.00,0.00,29.8,28.3,00.0,38.1,31.4,06.6,0000.0,0009.89,0003.28,0001.91
2023-04-12 00:01:00,,0828.2,5.01,0.00,29.8,28.4,00.0,38.2,31.5,06.5,0000.0,0010.32,0003.28,0001.88
2023-04-12 00:02:00,,0828.1,5.00,0.00,29.9,28.5,00.0,38.2,31.5,06.4,0000.0,0010.40,0003.28,0001.87
2023-04-12 00:03:00,,0828.1,5.00,0.00,29.9,28.6,00.0,38.2,31.6,06.4,0000.0,0009.76,0003.17,0001.85
2023-04-12 00:04:00,,0828.1,5.00,0.00,29.9,28.7,00.0,38.2,31.6,06.3,0000.0,0009.75,0003.19,0001.84
2023-04-12 00:05:00,,0828.1,5.00,0.00,30.0,28.8,00.0,38.2,31.7,06.3,0000.0,0009.77,0003.20,0001.82
2023-04-12 00:06:00,,0828.1,5.00,0.00,30.0,28.9,00.0,38.3,31.7,06.3,0000.0,0009.36,0003.20,0001.81
2023-04-12 00:07:00,,0828.1,5.00,0.00,30.1,28.8,00.0,38.3,31.7,06.4,0000.0,0008.82,0003.16,0001.81
2023-04-12 00:08:00,,0828.1,4.99,0.00,30.0,27.2,00.0,38.2,31.5,06.6,0000.0,0010.12,0003.30,0001.83
2023-04-12 00:09:00,,0828.0,5.01,0.00,29.9,25.7,00.0,38.1,31.2,06.4,0000.0,0010.38,0003.33,0001.82
2023-04-12 00:10:00,,0828.0,5.02,0.00,29.9,25.6,00.0,38.0,31.1,06.5,0000.0,0010.35,0003.35,0001.82
2023-04-12 00:11:00,,0828.1,4.99,0.00,29.8,25.9,00.0,38.0,31.0,06.7,0000.0,0010.25,0003.38,0001.84
2023-04-12 00:12:00,,0828.1,5.00,0.00,29.7,26.3,00.0,38.1,31.0,06.9,0000.0,0011.31,0003.52,0001.87
2023-04-12 00:13:00,,0828.1,4.99,0.00,29.7,26.7,00.0,38.1,31.1,06.6,0000.0,0011.94,0003.64,0001.88
2023-04-12 00:14:00,,0828.1,5.00,0.00,29.7,27.1,00.0,38.1,31.1,06.5,0000.0,0012.42,0003.71,0001.90
2023-04-12 00:15:00,,0828.1,5.00,0.00,29.7,27.4,00.0,38.1,31.2,06.6,0000.0,0012.47,0003.71,0001.91
2023-04-12 00:16:00,,0828.1,5.01,0.00,29.7,27.6,00.0,38.1,31.3,06.5,0000.0,0012.56,0003.70,0001.91
2023-04-12 00:17:00,,0828.1,4.99,0.00,29.7,27.9,00.0,38.1,31.3,06.4,0000.0,0012.28,0003.69,0001.91
2023-04-12 00:18:00,,0828.1,5.00,0.00,29.8,28.1,00.0,38.1,31.4,06.5,0000.0,0012.04,0003.68,0001.90
2023-04-12 00:19:00,,0828.2,5.00,0.00,29.8,28.2,00.0,38.1,31.4,06.6,0000.0,0010.94,0003.54,0001.87
2023-04-12 00:20:00,,0828.2,5.01,0.00,29.8,28.4,00.0,38.1,31.4,06.5,0000.0,0010.22,0003.46,0001.86
2023-04-12 00:21:00,,0828.1,5.00,0.00,29.9,28.5,00.0,38.2,31.5,06.4,0000.0,0009.69,0003.45,0001.86
2023-04-12 00:22:00,,0828.2,5.00,0.00,29.9,28.6,00.0,38.2,31.6,06.5,0000.0,0009.47,0003.40,0001.83
2023-04-12 00:23:00,,0828.2,4.99,0.00,29.9,28.7,00.0,38.2,31.6,06.5,0000.0,0008.35,0003.29,0001.81
2023-04-12 00:24:00,,0828.2,5.00,0.00,30.0,28.8,00.0,38.2,31.7,06.6,0000.0,0007.69,0003.14,0001.77
2023-04-12 00:25:00,,0828.2,5.00,0.00,30.0,28.8,00.0,38.3,31.7,06.7,0000.0,0007.13,0003.03,0001.74
2023-04-12 00:26:00,,0828.2,5.00,0.00,30.1,28.9,00.0,38.3,31.8,06.8,0000.0,0007.25,0003.05,0001.71
2023-04-12 00:27:00,,0828.2,4.99,0.00,30.1,28.5,00.0,38.3,31.7,06.8,0000.0,0007.07,0003.00,0001.72
2023-04-12 00:28:00,,0828.1,4.99,0.00,30.0,27.0,00.0,38.2,31.4,06.6,0000.0,0007.00,0002.99,0001.71
2023-04-12 00:29:00,,0828.1,5.02,0.00,30.0,26.5,00.0,38.1,31.4,06.4,0000.0,0007.63,0003.06,0001.72
2023-04-12 00:30:00,,0828.1,5.00,0.00,29.9,26.7,00.0,38.1,31.3,06.5,0000.0,0008.03,0003.12,0001.72
2023-04-12 00:31:00,,0828.0,5.00,0.00,29.9,26.9,00.0,38.2,31.3,06.8,0000.0,0008.59,0003.11,0001.73
2023-04-12 00:32:00,,0828.1,5.00,0.00,29.9,27.2,00.0,38.2,31.3,06.6,0000.0,0008.61,0003.14,0001.74
2023-04-12 00:33:00,,0828.1,5.00,0.00,29.9,27.5,00.0,38.2,31.4,06.6,0000.0,0008.70,0003.17,0001.76
2023-04-12 00:34:00,,0828.2,5.00,0.00,29.9,27.8,00.0,38.2,31.4,06.7,0000.0,0008.68,0003.16,0001.78
2023-04-12 00:35:00,,0828.2,5.00,0.00,29.9,28.0,00.0,38.2,31.5,06.7,0000.0,0008.28,0003.13,0001.80
2023-04-12 00:36:00,,0828.1,5.00,0.00,29.9,28.2,00.0,38.2,31.5,06.5,0000.0,0008.26,0003.12,0001.80
2023-04-12 00:37:00,,0828.2,5.00,0.00,30.0,28.4,00.0,38.3,31.5,06.4,0000.0,0008.28,0003.10,0001.81
2023-04-12 00:38:00,,0828.2,5.00,0.00,30.0,28.5,00.0,38.3,31.6,06.5,0000.0,0008.34,0003.09,0001.79
2023-04-12 00:39:00,,0828.2,4.99,0.00,30.0,28.6,00.0,38.3,31.7,06.5,0000.0,0008.54,0003.12,0001.78
2023-04-12 00:40:00,,0828.2,5.00,0.00,30.0,28.7,00.0,38.3,31.7,06.5,0000.0,0008.11,0003.10,0001.77
2023-04-12 00:41:00,,0828.2,5.00,0.00,30.1,28.8,00.0,38.3,31.8,06.6,0000.0,0007.77,0003.06,0001.76
2023-04-12 00:42:00,,0828.2,5.00,0.00,30.1,28.8,00.0,38.4,31.8,06.6,0000.0,0007.44,0003.06,0001.75
2023-04-12 00:43:00,,0828.1,4.99,0.00,30.1,27.5,00.0,38.3,31.6,06.6,0000.0,0007.60,0002.98,0001.75
2023-04-12 00:44:00,,0828.1,5.01,0.00,30.0,25.8,00.0,38.2,31.2,06.7,0000.0,0007.46,0002.93,0001.74
2023-04-12 00:45:00,,0828.1,5.01,0.00,29.9,25.5,00.0,38.1,31.1,06.8,0000.0,0007.46,0002.95,0001.73
2023-04-12 00:46:00,,0828.0,5.00,0.00,29.8,25.7,00.0,38.1,31.0,06.9,0000.0,0007.82,0003.00,0001.74
2023-04-12 00:47:00,,0828.0,5.00,0.00,29.8,26.1,00.0,38.1,31.0,07.0,0000.0,0008.23,0003.08,0001.75
2023-04-12 00:48:00,,0828.0,5.00,0.00,29.7,26.5,00.0,38.1,31.1,07.0,0000.0,0008.99,0003.11,0001.75
2023-04-12 00:49:00,,0828.1,4.99,0.00,29.7,26.9,00.0,38.1,31.1,06.9,0000.0,0009.12,0003.17,0001.76
2023-04-12 00:50:00,,0828.0,5.00,0.00,29.7,27.2,00.0,38.1,31.2,06.8,0000.0,0009.16,0003.19,0001.78
2023-04-12 00:51:00,,0828.0,5.00,0.00,29.7,27.5,00.0,38.1,31.2,06.9,0000.0,0009.95,0003.21,0001.79
2023-04-12 00:52:00,,0828.1,5.00,0.00,29.7,27.7,00.0,38.1,31.2,06.9,0000.0,0010.29,0003.21,0001.80
2023-04-12 00:53:00,,0828.1,5.00,0.00,29.8,27.9,00.0,38.1,31.3,07.0,0000.0,0009.95,0003.19,0001.80
2023-04-12 00:54:00,,0828.1,5.00,0.00,29.8,28.1,00.0,38.1,31.3,06.9,0000.0,0009.85,0003.27,0001.80
2023-04-12 00:55:00,,0828.1,4.99,0.00,29.8,28.2,00.0,38.2,31.4,06.9,0000.0,0010.28,0003.31,0001.82
2023-04-12 00:56:00,,0828.1,5.00,0.00,29.8,28.4,00.0,38.2,31.5,06.8,0000.0,0011.12,0003.37,0001.83
2023-04-12 00:57:00,,0828.0,5.00,0.00,29.9,28.5,00.0,38.2,31.5,06.9,0000.0,0011.78,0003.41,0001.85
2023-04-12 00:58:00,,0828.1,5.00,0.00,29.9,28.6,00.0,38.2,31.6,06.9,0000.0,0013.77,0003.45,0001.86
2023-04-12 00:59:00,,0828.1,5.00,0.00,30.0,28.7,00.0,38.2,31.6,06.9,0000.0,0014.57,0003.47,0001.88
